| time (UTC) | temp C | wind direction | speed KPH | gust KPH | rain 1hr cm | rain 24hr cm | rain mn cm | humidity % | barometer mb |
| 20260508213044 | 20 | 269 | 8.0 | 12.9 | 0.00 | 0.03 | 0.03 | 45 | 1015.3 |
| 20260508211542 | 20 | 311 | 1.6 | 11.3 | 0.00 | 0.03 | 0.03 | 45 | 1015.3 |
| 20260508210043 | 20 | 324 | 3.2 | 9.7 | 0.00 | 0.03 | 0.03 | 46 | 1015.4 |
| 20260508204542 | 20 | 359 | 3.2 | 12.9 | 0.00 | 0.03 | 0.03 | 43 | 1015.6 |
| 20260508203042 | 20 | 67 | 1.6 | 11.3 | 0.00 | 0.03 | 0.03 | 42 | 1015.7 |
| 20260508201546 | 19 | 342 | 9.7 | 14.5 | 0.00 | 0.03 | 0.03 | 38 | 1016.1 |
| 20260508200046 | 20 | 70 | 1.6 | 9.7 | 0.00 | 0.03 | 0.03 | 40 | 1016.6 |
| 20260508194542 | 18 | 297 | 6.4 | 14.5 | 0.00 | 0.03 | 0.03 | 40 | 1016.9 |
| 20260508193043 | 19 | 353 | 4.8 | 12.9 | 0.00 | 0.03 | 0.03 | 39 | 1017.1 |
| 20260508191542 | 18 | 294 | 4.8 | 11.3 | 0.00 | 0.03 | 0.03 | 41 | 1016.9 |
| 20260508190042 | 19 | 349 | 3.2 | 6.4 | 0.00 | 0.03 | 0.03 | 40 | 1017.2 |
| 20260508184544 | 18 | 282 | 6.4 | 11.3 | 0.00 | 0.03 | 0.03 | 38 | 1017.6 |
| 20260508183043 | 18 | 64 | 1.6 | 12.9 | 0.00 | 0.03 | 0.03 | 38 | 1017.7 |
| 20260508181554 | 18 | 296 | 1.6 | 11.3 | 0.00 | 0.03 | 0.03 | 44 | 1017.8 |
| 20260508180049 | 18 | 284 | 6.4 | 11.3 | 0.00 | 0.03 | 0.03 | 39 | 1018.0 |
| 20260508174550 | 18 | 32 | 1.6 | 6.4 | 0.00 | 0.03 | 0.03 | 32 | 1018.1 |
| 20260508173044 | 17 | 333 | 0.0 | 6.4 | 0.00 | 0.03 | 0.03 | 35 | 1018.5 |
| 20260508171543 | 17 | 332 | 4.8 | 8.0 | 0.00 | 0.03 | 0.03 | 37 | 1018.8 |
| 20260508170043 | 17 | 186 | 1.6 | 8.0 | 0.00 | 0.03 | 0.03 | 37 | 1019.2 |
| 20260508164544 | 17 | 349 | 1.6 | 4.8 | 0.00 | 0.03 | 0.03 | 42 | 1019.3 |
| 20260508163040 | 16 | 330 | 4.8 | 11.3 | 0.00 | 0.03 | 0.03 | 43 | 1019.4 |
| 20260508161545 | 16 | 345 | 1.6 | 8.0 | 0.00 | 0.03 | 0.03 | 46 | 1019.6 |
| 20260508160047 | 15 | 51 | 6.4 | 9.7 | 0.00 | 0.03 | 0.03 | 43 | 1019.9 |
| 20260508154545 | 15 | 40 | 3.2 | 4.8 | 0.00 | 0.05 | 0.03 | 48 | 1020.2 |
| 20260508153047 | 14 | 105 | 6.4 | 11.3 | 0.00 | 0.05 | 0.03 | 49 | 1020.0 |
| 20260508151544 | 14 | 78 | 0.0 | 6.4 | 0.00 | 0.05 | 0.03 | 51 | 1020.3 |
| 20260508150042 | 13 | 276 | 1.6 | 8.0 | 0.00 | 0.05 | 0.03 | 56 | 1020.5 |
| 20260508144547 | 13 | 44 | 4.8 | 12.9 | 0.00 | 0.10 | 0.03 | 55 | 1020.6 |
| 20260508143042 | 12 | 309 | 4.8 | 11.3 | 0.00 | 0.10 | 0.03 | 73 | 1020.6 |
| 20260508141610 | 12 | 285 | 3.2 | 8.0 | 0.00 | 0.10 | 0.03 | 78 | 1020.6 |
| 20260508140045 | 11 | 340 | 1.6 | 4.8 | 0.00 | 0.10 | 0.03 | 88 | 1020.7 |
| 20260508134554 | 10 | 0 | 1.6 | 4.8 | 0.00 | 0.13 | 0.03 | 94 | 1020.5 |
| 20260508133045 | 9 | 0 | 0.0 | 1.6 | 0.00 | 0.13 | 0.03 | 97 | 1020.6 |
| 20260508131546 | 8 | 0 | 0.0 | 3.2 | 0.00 | 0.13 | 0.03 | 97 | 1020.4 |
| 20260508130045 | 7 | 94 | 0.0 | 4.8 | 0.00 | 0.13 | 0.03 | 97 | 1020.5 |
| 20260508124548 | 6 | 269 | 0.0 | 4.8 | 0.00 | 0.15 | 0.03 | 96 | 1020.3 |
| 20260508123050 | 6 | 0 | 0.0 | 1.6 | 0.00 | 0.15 | 0.03 | 97 | 1020.1 |
| 20260508121541 | 6 | 111 | 0.0 | 3.2 | 0.00 | 0.15 | 0.03 | 96 | 1020.0 |
| 20260508120052 | 6 | 0 | 0.0 | 1.6 | 0.00 | 0.15 | 0.03 | 96 | 1019.9 |
| 20260508114544 | 6 | 0 | 0.0 | 0.0 | 0.00 | 0.18 | 0.03 | 96 | 1019.6 |
| 20260508113105 | 6 | 0 | 0.0 | 3.2 | 0.00 | 0.18 | 0.03 | 96 | 1019.6 |
| 20260508111544 | 6 | 0 | 0.0 | 1.6 | 0.00 | 0.18 | 0.03 | 96 | 1019.3 |
| 20260508110041 | 5 | 0 | 0.0 | 1.6 | 0.00 | 0.18 | 0.03 | 95 | 1019.3 |
| 20260508104544 | 5 | 0 | 0.0 | 3.2 | 0.00 | 0.18 | 0.03 | 95 | 1019.0 |
| 20260508103044 | 5 | 0 | 0.0 | 1.6 | 0.00 | 0.18 | 0.03 | 94 | 1018.8 |
| 20260508101547 | 6 | 0 | 0.0 | 1.6 | 0.00 | 0.18 | 0.03 | 94 | 1018.7 |
| 20260508100040 | 6 | 0 | 0.0 | 0.0 | 0.00 | 0.18 | 0.03 | 94 | 1018.6 |
| 20260508094547 | 6 | 0 | 0.0 | 0.0 | 0.00 | 0.23 | 0.03 | 94 | 1018.5 |
| 20260508093053 | 6 | 82 | 1.6 | 1.6 | 0.00 | 0.23 | 0.03 | 94 | 1018.3 |
| 20260508091550 | 6 | 0 | 0.0 | 0.0 | 0.03 | 0.23 | 0.03 | 90 | 1018.5 |
| 20260508090046 | 6 | 0 | 0.0 | 0.0 | 0.03 | 0.23 | 0.03 | 90 | 1018.2 |
| 20260508084542 | 6 | 0 | 0.0 | 0.0 | 0.03 | 0.30 | 0.03 | 90 | 1018.1 |
| 20260508083104 | 6 | 0 | 0.0 | 0.0 | 0.03 | 0.30 | 0.03 | 89 | 1018.2 |
| 20260508081554 | 7 | 0 | 0.0 | 0.0 | 0.00 | 0.28 | 0.00 | 90 | 1018.1 |
| 20260508080042 | 7 | 0 | 0.0 | 1.6 | 0.00 | 0.28 | 0.00 | 89 | 1018.2 |
| 20260508074550 | 7 | 0 | 0.0 | 0.0 | 0.00 | 0.28 | 0.00 | 94 | 1018.2 |
| 20260508073043 | 7 | 0 | 0.0 | 0.0 | 0.00 | 0.28 | 0.00 | 93 | 1018.1 |
| 20260508071545 | 7 | 0 | 0.0 | 0.0 | 0.00 | 0.28 | 0.00 | 92 | 1018.3 |
| 20260508070044 | 7 | 0 | 0.0 | 0.0 | 0.00 | 0.28 | 0.00 | 91 | 1018.3 |
| 20260508064548 | 8 | 0 | 0.0 | 1.6 | 0.00 | 0.30 | 0.00 | 92 | 1018.6 |
| 20260508063040 | 8 | 111 | 0.0 | 3.2 | 0.00 | 0.30 | 0.00 | 91 | 1018.5 |
| 20260508061545 | 8 | 65 | 0.0 | 1.6 | 0.00 | 0.30 | 0.00 | 86 | 1018.4 |
| 20260508060043 | 8 | 0 | 0.0 | 1.6 | 0.00 | 0.30 | 0.00 | 85 | 1018.6 |
| 20260508054542 | 8 | 0 | 0.0 | 4.8 | 0.00 | 0.30 | 0.00 | 85 | 1018.4 |
| 20260508053046 | 8 | 70 | 1.6 | 3.2 | 0.00 | 0.30 | 0.00 | 90 | 1018.5 |
| 20260508051550 | 9 | 63 | 3.2 | 4.8 | 0.00 | 0.30 | 0.00 | 91 | 1018.4 |
| 20260508050046 | 8 | 59 | 1.6 | 3.2 | 0.00 | 0.30 | 0.00 | 94 | 1018.5 |
| 20260508044547 | 8 | 38 | 0.0 | 1.6 | 0.00 | 0.30 | 0.00 | 96 | 1018.2 |
| 20260508043051 | 9 | 0 | 0.0 | 1.6 | 0.00 | 0.30 | 0.00 | 97 | 1018.2 |
| 20260508041545 | 8 | 0 | 0.0 | 1.6 | 0.00 | 0.30 | 0.00 | 97 | 1018.0 |
| 20260508040046 | 9 | 0 | 0.0 | 3.2 | 0.00 | 0.30 | 0.00 | 96 | 1018.0 |
| 20260508034543 | 9 | 0 | 0.0 | 3.2 | 0.00 | 0.30 | 0.30 | 96 | 1017.9 |
| 20260508033042 | 9 | 12 | 0.0 | 1.6 | 0.00 | 0.30 | 0.30 | 96 | 1018.0 |
| 20260508031542 | 9 | 0 | 0.0 | 1.6 | 0.00 | 0.30 | 0.30 | 96 | 1018.1 |
| 20260508030045 | 10 | 0 | 0.0 | 3.2 | 0.00 | 0.30 | 0.30 | 96 | 1017.8 |
| 20260508024546 | 9 | 313 | 0.0 | 3.2 | 0.00 | 0.30 | 0.30 | 95 | 1017.7 |
| 20260508023044 | 10 | 0 | 0.0 | 1.6 | 0.00 | 0.30 | 0.30 | 95 | 1017.4 |
| 20260508021548 | 10 | 321 | 0.0 | 3.2 | 0.00 | 0.30 | 0.30 | 95 | 1017.3 |
| 20260508020041 | 10 | 292 | 1.6 | 3.2 | 0.00 | 0.30 | 0.30 | 94 | 1017.3 |
| 20260508014541 | 10 | 0 | 0.0 | 3.2 | 0.00 | 0.64 | 0.30 | 93 | 1016.8 |
| 20260508013046 | 10 | 297 | 1.6 | 4.8 | 0.00 | 0.64 | 0.30 | 93 | 1016.7 |
| 20260508011543 | 10 | 275 | 1.6 | 6.4 | 0.00 | 0.64 | 0.30 | 93 | 1016.5 |
| 20260508010038 | 10 | 297 | 1.6 | 6.4 | 0.00 | 0.64 | 0.30 | 92 | 1016.2 |
| 20260508004545 | 11 | 285 | 3.2 | 6.4 | 0.00 | 0.71 | 0.30 | 90 | 1016.1 |
| 20260508003038 | 11 | 269 | 0.0 | 3.2 | 0.00 | 0.71 | 0.30 | 89 | 1016.0 |
| 20260508001542 | 11 | 0 | 0.0 | 1.6 | 0.00 | 0.71 | 0.30 | 86 | 1015.9 |
| 20260508000045 | 12 | 231 | 3.2 | 6.4 | 0.00 | 0.71 | 0.30 | 84 | 1016.0 |
| 20260507234543 | 13 | 298 | 3.2 | 6.4 | 0.00 | 0.74 | 0.30 | 84 | 1015.7 |
| 20260507233046 | 13 | 203 | 1.6 | 4.8 | 0.00 | 0.74 | 0.30 | 83 | 1015.9 |
| 20260507231547 | 12 | 204 | 3.2 | 6.4 | 0.00 | 0.74 | 0.30 | 85 | 1016.0 |
| 20260507230047 | 12 | 318 | 1.6 | 6.4 | 0.00 | 0.74 | 0.30 | 86 | 1016.2 |
| 20260507224543 | 12 | 271 | 4.8 | 11.3 | 0.00 | 0.74 | 0.30 | 84 | 1016.3 |
| 20260507223041 | 13 | 302 | 3.2 | 14.5 | 0.00 | 0.74 | 0.30 | 83 | 1016.1 |
| 20260507221544 | 14 | 288 | 3.2 | 12.9 | 0.00 | 0.74 | 0.30 | 80 | 1015.9 |
| 20260507220051 | 13 | 281 | 3.2 | 12.9 | 0.00 | 0.74 | 0.30 | 82 | 1015.7 |
| 20260507214603 | 13 | 170 | 1.6 | 6.4 | 0.00 | 0.74 | 0.30 | 81 | 1015.7 |